Regional Weather Roundup
Issued by NWS Kansas City/Pleasant Hill, MO

Home | Current Version | Previous Version | Text Only | Print | Product List | Glossary On
Versions: 1 2 3 4 5 6 7 8 9 10 11 12 13 14 15 16 17 18 19 20 21 22 23 24 25 26 27
000
ASUS43 KEAX 081210
RWREAX

WEATHER ROUNDUP FOR EASTERN KANSAS AND NORTHWEST MISSOURI
NATIONAL WEATHER SERVICE KANSAS CITY/PLEASANT HILL MO
600 AM CST THU DEC 08 2016

KSZ040-057-103>105-MOZ028-029-037-043-081300-
...KANSAS CITY METROPOLITAN AREA...

CITY           SKY/WX    TMP DP  RH WIND       PRES   REMARKS
K.C. INTL      CLEAR     15   5  64 NW12      30.53R WCI   2
6HR MIN TEMP:  15; 6HR MAX TEMP:  19;

K.C. DOWNTOWN  CLEAR     17   6  62 NW12      30.55R WCI   4
6HR MIN TEMP:  17; 6HR MAX TEMP:  22;

LEES SUMMIT    CLEAR     16   7  67 NW12      30.52R WCI   3
6HR MIN TEMP:  16; 6HR MAX TEMP:  21;

OLATHE - IXD   CLEAR     14   7  73 NW13      30.54R WCI   0
6HR MIN TEMP:  14; 6HR MAX TEMP:  20;

OLATHE - OJC   CLEAR     14   5  67 NW13      30.53R WCI   0
6HR MIN TEMP:  14; 6HR MAX TEMP:  20;

LAWRENCE       CLEAR     15   8  73 W13       30.57R WCI   1

$$

MOZ001>008-011>017-020>025-030>033-038>040-044>046-053-054-081300-
...NORTHERN AND CENTRAL MISSOURI...

CITY           SKY/WX    TMP DP  RH WIND       PRES   REMARKS
ST. JOSEPH     CLEAR     15   5  64 NW12      30.55R WCI   2
6HR MIN TEMP:  15; 6HR MAX TEMP:  20;

MOSBY          SUNNY     18   9  68 W13       30.53R WCI   4
WARRENSBURG    CLEAR     18   9  68 W9G16     30.53R WCI   6
WHITEMAN AFB   CLEAR     16   9  73 W8        30.51R WCI   5
CLINTON        CLEAR     18   9  68 W8        30.54R WCI   7
SEDALIA        CLEAR     17   9  70 W8        30.51R WCI   7
6HR MIN TEMP:  17; 6HR MAX TEMP:  21;

WARSAW         NOT AVBL
CHILLICOTHE      N/A     16   7  67 NW7       30.51R WCI   6
6HR MIN TEMP:  16; 6HR MAX TEMP:  21; 6HR PCP:  0.01;

KIRKSVILLE     CLEAR     14   7  73 W13       30.43R WCI   0
6HR MIN TEMP:  14; 6HR MAX TEMP:  19;


$$

MOZ041-047>049-056>058-063>065-088>090-097-081300-
...EASTERN AND SOUTHERN MISSOURI...

CITY           SKY/WX    TMP DP  RH WIND       PRES   REMARKS
ST. LOUIS INTL PTCLDY    22  10  60 W13G24    30.42R WCI  10
6HR MIN TEMP:  22; 6HR MAX TEMP:  28;

SPIRIT OF STL  CLEAR     21  11  65 W13G21    30.45R WCI   9
COLUMBIA       CLEAR     18   9  68 W9        30.46R WCI   7
JEFFERSON CITY CLEAR     19   9  65 W10       30.50R WCI   7
ROLLA          PTCLDY    17  10  74 W14       30.43R WCI   3
OSAGE BEACH    CLEAR     19  10  68 NW7       30.51R WCI  10
SPRINGFIELD    PTCLDY    18  11  74 W7        30.50R WCI   9
BRANSON        CLOUDY    21  10  63 NW6       30.52R WCI  14
JOPLIN         CLEAR     17  10  74 CALM      30.58R
WEST PLAINS    CLEAR     20  11  68 NW6       30.47R WCI  12

$$

IAZ060-094-KSZ022-034>040-054-083-096-NEZ052-066-093-081300-
...KANSAS...SOUTHEAST NEBRASKA AND IOWA...

CITY           SKY/WX    TMP DP  RH WIND       PRES   REMARKS
TOPEKA         CLEAR     15   6  67 W8        30.59R WCI   4
6HR MIN TEMP:  15; 6HR MAX TEMP:  20;

MANHATTAN      CLEAR     15   5  64 NW5       30.61R WCI   8
EMPORIA        CLEAR     14   7  73 NW14      30.58R WCI  -1
CHANUTE        CLEAR     17   9  70 NW9       30.59R WCI   6
WICHITA        CLEAR     17   7  64 N16       30.61R WCI   2
OMAHA          PTCLDY    12   3  67 NW21      30.53R WCI  -7
LINCOLN        CLEAR     12   2  64 NW16      30.57R WCI  -5
FALLS CITY     CLEAR     13   5  70 NW10      30.55R WCI   0
LAMONI         CLEAR     13   6  74 W16       30.44R WCI  -3
DES MOINES     PTCLDY    13   4  67 NW20G30   30.42R WCI  -5

$$





USA.gov is the U.S. government's official web portal to all federal, state and local government web resources and services.